N2WW MYAT-KTOL

Flight info

Callsign N2WW
Flight time N/A
Altitude 47000
Route TAY SOT TOL DCT
Aircraft C750/M-L/C

Departure

Time N/A
Airport Treasure Cay Airport (MYAT)

Arrival

Time 2026-04-20 14:23
Airport Eugene F. Kranz Toledo Express Airport (KTOL)
Time Latitude Longitude Altitude Speed Heading
2026-04-20 12:34 28.22614 -79.34786 16503 ft 487 kts 310°
2026-04-20 12:34 28.24789 -79.37731 16503 ft 487 kts 310°
2026-04-20 12:34 28.26939 -79.40643 16503 ft 487 kts 310°
2026-04-20 12:34 28.29118 -79.43598 16503 ft 487 kts 310°
2026-04-20 12:35 28.31264 -79.46510 16503 ft 487 kts 310°
2026-04-20 12:35 28.33424 -79.49442 16880 ft 479 kts 310°
2026-04-20 12:35 28.35594 -79.52391 18214 ft 494 kts 310°
2026-04-20 12:35 28.37795 -79.55383 19468 ft 507 kts 310°
2026-04-20 12:36 28.40070 -79.58478 20733 ft 517 kts 310°
2026-04-20 12:36 28.42360 -79.61597 21983 ft 526 kts 310°
2026-04-20 12:36 28.44724 -79.64818 23250 ft 536 kts 310°
2026-04-20 12:36 28.47099 -79.68057 24493 ft 546 kts 309°
2026-04-20 12:37 28.49546 -79.71396 25740 ft 554 kts 309°
2026-04-20 12:37 28.51989 -79.74733 26971 ft 553 kts 309°
2026-04-20 12:37 28.54394 -79.78020 28225 ft 533 kts 309°
2026-04-20 12:37 28.56702 -79.81177 29439 ft 518 kts 309°
2026-04-20 12:38 28.58990 -79.84310 30680 ft 513 kts 309°
2026-04-20 12:38 28.61240 -79.87393 31917 ft 513 kts 309°
2026-04-20 12:38 28.63490 -79.90478 33153 ft 512 kts 309°
2026-04-20 12:38 28.65762 -79.93594 34399 ft 510 kts 309°
2026-04-20 12:39 28.70387 -79.99948 36901 ft 551 kts 309°
2026-04-20 12:39 28.72813 -80.03284 38137 ft 551 kts 309°
2026-04-20 12:39 28.75233 -80.06615 39374 ft 548 kts 309°
2026-04-20 12:40 28.77638 -80.09927 40608 ft 546 kts 309°
2026-04-20 12:40 28.80037 -80.13234 41841 ft 546 kts 309°
2026-04-20 12:40 28.82464 -80.16582 43087 ft 546 kts 309°
2026-04-20 12:40 28.84823 -80.19840 44298 ft 530 kts 310°
2026-04-20 12:41 28.87145 -80.23048 45524 ft 535 kts 310°
2026-04-20 12:41 28.89489 -80.26290 46748 ft 537 kts 310°
2026-04-20 12:41 28.91902 -80.29628 47066 ft 551 kts 310°
2026-04-20 12:41 28.94299 -80.32949 47147 ft 535 kts 310°
2026-04-20 12:42 28.96592 -80.36128 47135 ft 510 kts 310°
2026-04-20 12:42 28.98819 -80.39217 47135 ft 497 kts 310°
2026-04-20 12:42 29.01023 -80.42277 47194 ft 513 kts 310°
2026-04-20 12:42 29.03317 -80.45462 47190 ft 531 kts 310°
2026-04-20 12:43 29.05661 -80.48723 47175 ft 532 kts 310°
2026-04-20 12:43 29.10252 -80.55114 47155 ft 514 kts 309°
2026-04-20 12:44 29.14790 -80.61440 47173 ft 516 kts 309°
2026-04-20 12:44 29.19338 -80.67790 47169 ft 519 kts 309°
2026-04-20 12:45 29.23891 -80.74158 47167 ft 518 kts 309°
2026-04-20 12:45 29.28431 -80.80517 47168 ft 518 kts 309°
2026-04-20 12:46 29.32943 -80.86846 47168 ft 518 kts 309°
2026-04-20 12:46 29.37559 -80.93330 47183 ft 538 kts 309°
2026-04-20 12:47 29.42288 -80.99987 47167 ft 539 kts 309°
2026-04-20 12:47 29.46993 -81.06619 47166 ft 535 kts 309°
2026-04-20 12:48 29.51670 -81.13222 47169 ft 536 kts 309°
2026-04-20 12:48 29.56338 -81.19823 47168 ft 536 kts 309°
2026-04-20 12:49 29.61034 -81.26475 47168 ft 536 kts 309°
2026-04-20 12:49 29.65683 -81.33070 47168 ft 536 kts 309°
2026-04-20 12:50 29.70360 -81.39718 47168 ft 536 kts 309°
2026-04-20 12:50 29.75026 -81.46358 47168 ft 536 kts 309°
2026-04-20 12:51 29.79696 -81.53017 47168 ft 536 kts 309°
2026-04-20 12:51 29.84343 -81.59654 47168 ft 536 kts 309°
2026-04-20 12:52 29.89000 -81.66316 47168 ft 536 kts 309°
2026-04-20 12:52 29.93664 -81.72998 47168 ft 536 kts 309°
2026-04-20 12:53 29.98313 -81.79671 47168 ft 536 kts 309°
2026-04-20 12:53 30.02974 -81.86370 47168 ft 536 kts 309°
2026-04-20 12:54 30.07603 -81.93036 47168 ft 536 kts 309°
2026-04-20 12:54 30.12243 -81.99730 47168 ft 536 kts 309°
2026-04-20 12:55 30.16886 -82.06437 47168 ft 536 kts 309°
2026-04-20 12:55 30.21520 -82.13143 47168 ft 536 kts 309°
2026-04-20 12:56 30.26161 -82.19872 47168 ft 536 kts 309°
2026-04-20 12:56 30.30792 -82.26596 47168 ft 536 kts 309°
2026-04-20 12:57 30.35387 -82.33280 47168 ft 536 kts 309°
2026-04-20 12:57 30.40006 -82.40011 47168 ft 536 kts 309°
2026-04-20 12:58 30.44635 -82.46766 47168 ft 536 kts 309°
2026-04-20 12:58 30.49653 -82.52967 47280 ft 532 kts 327°
2026-04-20 12:58 30.52931 -82.54948 47262 ft 534 kts 345°
2026-04-20 12:59 30.56597 -82.55740 47284 ft 542 kts 355°
2026-04-20 12:59 30.64089 -82.56493 47168 ft 538 kts 356°
2026-04-20 13:00 30.71463 -82.57163 47167 ft 534 kts 356°
2026-04-20 13:00 30.78840 -82.57825 47169 ft 536 kts 356°
2026-04-20 13:01 30.86242 -82.58489 47168 ft 536 kts 356°
2026-04-20 13:01 30.93644 -82.59154 47168 ft 536 kts 356°
2026-04-20 13:02 31.01052 -82.59820 47168 ft 536 kts 356°
2026-04-20 13:02 31.08441 -82.60486 47168 ft 536 kts 356°
2026-04-20 13:03 31.15812 -82.61150 47168 ft 536 kts 356°
2026-04-20 13:03 31.23178 -82.61816 47851 ft 533 kts 356°
2026-04-20 13:03 31.26918 -82.62154 48484 ft 546 kts 356°
2026-04-20 13:04 31.30702 -82.62497 49061 ft 559 kts 356°
2026-04-20 13:04 31.38506 -82.63205 49160 ft 562 kts 356°
2026-04-20 13:05 31.46215 -82.63905 49166 ft 556 kts 356°
2026-04-20 13:05 31.53849 -82.64600 49168 ft 557 kts 356°
2026-04-20 13:06 31.61552 -82.65301 49168 ft 558 kts 355°
2026-04-20 13:06 31.69266 -82.66006 49168 ft 555 kts 355°
2026-04-20 13:06 31.73053 -82.66351 49158 ft 541 kts 355°
2026-04-20 13:07 31.76763 -82.66691 49156 ft 531 kts 355°
2026-04-20 13:07 31.84027 -82.67355 49169 ft 530 kts 355°
2026-04-20 13:08 31.91388 -82.68031 49169 ft 533 kts 355°
2026-04-20 13:08 31.98728 -82.68705 49165 ft 528 kts 355°
2026-04-20 13:09 32.05971 -82.69371 49169 ft 528 kts 355°
2026-04-20 13:09 32.13311 -82.70048 49168 ft 529 kts 355°
2026-04-20 13:10 32.20593 -82.70720 49168 ft 529 kts 355°
2026-04-20 13:10 32.27928 -82.71398 49168 ft 529 kts 355°
2026-04-20 13:11 32.35194 -82.72070 49168 ft 529 kts 355°
2026-04-20 13:11 32.42501 -82.72749 49168 ft 529 kts 355°
2026-04-20 13:12 32.49828 -82.73429 49168 ft 529 kts 355°
2026-04-20 13:12 32.57103 -82.74106 49168 ft 529 kts 355°
2026-04-20 13:13 32.64402 -82.74786 49168 ft 529 kts 355°
2026-04-20 13:13 32.71723 -82.75469 49168 ft 529 kts 355°
2026-04-20 13:14 32.78979 -82.76148 49168 ft 529 kts 355°
2026-04-20 13:14 32.86274 -82.76831 49168 ft 529 kts 355°
2026-04-20 13:15 32.93586 -82.77517 49168 ft 529 kts 355°
2026-04-20 13:15 33.00884 -82.78203 49168 ft 529 kts 355°
2026-04-20 13:16 33.08200 -82.78892 49168 ft 529 kts 355°
2026-04-20 13:16 33.15510 -82.79581 49168 ft 529 kts 355°
2026-04-20 13:17 33.22768 -82.80267 49168 ft 529 kts 355°
2026-04-20 13:17 33.30090 -82.80959 49168 ft 529 kts 355°
2026-04-20 13:18 33.37362 -82.81648 49168 ft 529 kts 355°
2026-04-20 13:18 33.44674 -82.82342 49168 ft 529 kts 355°
2026-04-20 13:19 33.51986 -82.83038 49168 ft 529 kts 355°
2026-04-20 13:19 33.59265 -82.83730 49168 ft 529 kts 355°
2026-04-20 13:20 33.66558 -82.84426 49168 ft 529 kts 355°
2026-04-20 13:20 33.73888 -82.85126 49168 ft 529 kts 355°
2026-04-20 13:21 33.81136 -82.85821 49168 ft 529 kts 355°
2026-04-20 13:21 33.88471 -82.86523 49168 ft 529 kts 355°
2026-04-20 13:22 33.95750 -82.87223 49168 ft 529 kts 355°
2026-04-20 13:22 34.03048 -82.87925 49168 ft 529 kts 355°
2026-04-20 13:23 34.10336 -82.88628 49168 ft 529 kts 355°
2026-04-20 13:23 34.17619 -82.89331 49168 ft 529 kts 355°
2026-04-20 13:24 34.23351 -82.89886 49164 ft 522 kts 355°
2026-04-20 13:24 34.30593 -82.90587 49174 ft 531 kts 355°
2026-04-20 13:25 34.37927 -82.91298 49167 ft 531 kts 355°
2026-04-20 13:25 34.45274 -82.92012 49167 ft 529 kts 355°
2026-04-20 13:26 34.52582 -82.92724 49168 ft 530 kts 355°
2026-04-20 13:26 34.59853 -82.93433 49168 ft 530 kts 355°
2026-04-20 13:27 34.67181 -82.94149 49168 ft 530 kts 355°
2026-04-20 13:27 34.74482 -82.94863 49168 ft 530 kts 355°
2026-04-20 13:28 34.81782 -82.95579 49168 ft 530 kts 355°
2026-04-20 13:28 34.89129 -82.96301 49168 ft 530 kts 355°
2026-04-20 13:29 34.96421 -82.97018 49168 ft 530 kts 355°
2026-04-20 13:29 35.03713 -82.97737 49168 ft 530 kts 355°
2026-04-20 13:30 35.11041 -82.98461 49168 ft 530 kts 355°
2026-04-20 13:30 35.18345 -82.99184 49168 ft 530 kts 355°
2026-04-20 13:31 35.25675 -82.99910 49168 ft 530 kts 355°
2026-04-20 13:31 35.32945 -83.00632 49168 ft 530 kts 355°
2026-04-20 13:32 35.40290 -83.01363 49168 ft 530 kts 355°
2026-04-20 13:32 35.47583 -83.02090 49168 ft 530 kts 355°
2026-04-20 13:33 35.54870 -83.02817 49168 ft 530 kts 355°
2026-04-20 13:33 35.62175 -83.03548 49168 ft 530 kts 355°
2026-04-20 13:34 35.69516 -83.04283 49168 ft 530 kts 355°
2026-04-20 13:34 35.76809 -83.05016 49168 ft 529 kts 355°
2026-04-20 13:35 35.84089 -83.05843 49168 ft 529 kts 354°
2026-04-20 13:35 35.91389 -83.06710 49168 ft 530 kts 354°
2026-04-20 13:36 35.98704 -83.07583 49168 ft 529 kts 354°
2026-04-20 13:36 36.06021 -83.08457 49168 ft 529 kts 354°
2026-04-20 13:37 36.13301 -83.09329 49168 ft 529 kts 354°
2026-04-20 13:37 36.20591 -83.10204 49168 ft 529 kts 354°
2026-04-20 13:38 36.27891 -83.11081 49168 ft 529 kts 354°
2026-04-20 13:38 36.35195 -83.11961 49168 ft 529 kts 354°
2026-04-20 13:39 36.42473 -83.12839 49168 ft 529 kts 354°
2026-04-20 13:39 36.49803 -83.13724 49168 ft 529 kts 354°
2026-04-20 13:40 36.57080 -83.14606 49168 ft 529 kts 354°
2026-04-20 13:40 36.64382 -83.15492 49168 ft 529 kts 354°
2026-04-20 13:41 36.71655 -83.16376 49168 ft 529 kts 354°
2026-04-20 13:41 36.78947 -83.17265 49168 ft 529 kts 354°
2026-04-20 13:42 36.86261 -83.18157 49168 ft 529 kts 354°
2026-04-20 13:42 36.97174 -83.19492 49168 ft 529 kts 354°
2026-04-20 13:43 37.04493 -83.20390 49168 ft 529 kts 354°
2026-04-20 13:43 37.11811 -83.21289 49168 ft 529 kts 354°
2026-04-20 13:44 37.19060 -83.22181 49168 ft 529 kts 354°
2026-04-20 13:44 37.26364 -83.23082 49168 ft 529 kts 354°
2026-04-20 13:45 37.33674 -83.23985 49168 ft 529 kts 354°
2026-04-20 13:45 37.40939 -83.24885 49168 ft 529 kts 354°
2026-04-20 13:46 37.48269 -83.25794 49168 ft 529 kts 354°
2026-04-20 13:46 37.55565 -83.26701 49168 ft 529 kts 354°
2026-04-20 13:47 37.62826 -83.27606 49168 ft 529 kts 354°
2026-04-20 13:47 37.70127 -83.28517 49168 ft 529 kts 354°
2026-04-20 13:48 37.77444 -83.29432 49168 ft 529 kts 354°
2026-04-20 13:48 37.84737 -83.30346 49168 ft 529 kts 354°
2026-04-20 13:49 37.92035 -83.31262 49168 ft 529 kts 354°
2026-04-20 13:49 37.99278 -83.32173 49168 ft 529 kts 354°
2026-04-20 13:50 38.06597 -83.33096 49168 ft 529 kts 354°
2026-04-20 13:50 38.13908 -83.34019 49168 ft 529 kts 354°
2026-04-20 13:51 38.21162 -83.34937 49168 ft 529 kts 354°
2026-04-20 13:51 38.28482 -83.35865 49168 ft 529 kts 354°
2026-04-20 13:52 38.35774 -83.36792 49168 ft 529 kts 354°
2026-04-20 13:52 38.43035 -83.37717 49168 ft 529 kts 354°
2026-04-20 13:53 38.48691 -83.38438 49168 ft 529 kts 354°
2026-04-20 13:53 38.52819 -83.38965 49412 ft 529 kts 354°
2026-04-20 13:54 38.60142 -83.39902 49409 ft 531 kts 354°
2026-04-20 13:54 38.67432 -83.40836 49410 ft 529 kts 354°
2026-04-20 13:55 38.74720 -83.41773 49412 ft 530 kts 354°
2026-04-20 13:55 38.82046 -83.42715 49412 ft 530 kts 354°
2026-04-20 13:56 38.89333 -83.43655 49411 ft 530 kts 354°
2026-04-20 13:56 38.96645 -83.44601 49412 ft 530 kts 354°
2026-04-20 13:57 39.03933 -83.45544 49412 ft 530 kts 354°
2026-04-20 13:57 39.11251 -83.46494 49412 ft 530 kts 354°
2026-04-20 13:58 39.18526 -83.47440 49412 ft 530 kts 354°
2026-04-20 13:58 39.25835 -83.48393 49412 ft 530 kts 354°
2026-04-20 13:59 39.33136 -83.49346 49412 ft 530 kts 354°
2026-04-20 13:59 39.40426 -83.50301 49412 ft 530 kts 354°
2026-04-20 14:00 39.47702 -83.51255 49412 ft 530 kts 354°
2026-04-20 14:00 39.54973 -83.52617 49417 ft 530 kts 349°
2026-04-20 14:01 39.62167 -83.54415 49411 ft 530 kts 349°
2026-04-20 14:01 39.65786 -83.55341 49121 ft 538 kts 349°
2026-04-20 14:01 39.69397 -83.56268 48454 ft 527 kts 349°
2026-04-20 14:02 39.72926 -83.57175 47811 ft 511 kts 349°
2026-04-20 14:02 39.76342 -83.58055 47141 ft 496 kts 349°
2026-04-20 14:02 39.79688 -83.58918 46481 ft 484 kts 349°
2026-04-20 14:02 39.82935 -83.59756 45850 ft 478 kts 349°
2026-04-20 14:03 39.86160 -83.60589 45235 ft 477 kts 349°
2026-04-20 14:03 39.89379 -83.61421 44619 ft 475 kts 349°
2026-04-20 14:03 39.92603 -83.62255 43992 ft 470 kts 349°
2026-04-20 14:03 39.95758 -83.63073 43218 ft 468 kts 349°
2026-04-20 14:04 39.98942 -83.63899 42325 ft 464 kts 349°
2026-04-20 14:04 40.02073 -83.64711 41469 ft 462 kts 349°
2026-04-20 14:04 40.05181 -83.65518 40603 ft 458 kts 348°
2026-04-20 14:04 40.08266 -83.66320 39722 ft 450 kts 348°
2026-04-20 14:05 40.11283 -83.67105 38854 ft 448 kts 348°
2026-04-20 14:05 40.14336 -83.67900 38007 ft 456 kts 348°
2026-04-20 14:05 40.17498 -83.68725 37184 ft 471 kts 348°
2026-04-20 14:05 40.20690 -83.69558 36334 ft 473 kts 348°
2026-04-20 14:06 40.23942 -83.70408 35429 ft 482 kts 348°
2026-04-20 14:06 40.27193 -83.71258 34170 ft 486 kts 348°
2026-04-20 14:06 40.30515 -83.72128 32928 ft 489 kts 348°
2026-04-20 14:06 40.33810 -83.72990 31706 ft 493 kts 348°
2026-04-20 14:07 40.37188 -83.73877 30463 ft 498 kts 348°
2026-04-20 14:07 40.40583 -83.74768 29223 ft 503 kts 348°
2026-04-20 14:07 40.43968 -83.75658 28001 ft 508 kts 348°
2026-04-20 14:07 40.47440 -83.76571 26759 ft 514 kts 348°
2026-04-20 14:08 40.50948 -83.77495 25519 ft 519 kts 348°
2026-04-20 14:08 40.54436 -83.78415 24297 ft 524 kts 348°
2026-04-20 14:08 40.58016 -83.79359 23056 ft 530 kts 348°
2026-04-20 14:08 40.61615 -83.80310 21811 ft 521 kts 348°
2026-04-20 14:09 40.64794 -83.81151 20452 ft 427 kts 348°
2026-04-20 14:09 40.67455 -83.81855 19119 ft 366 kts 348°
2026-04-20 14:09 40.69830 -83.82484 17827 ft 361 kts 348°
2026-04-20 14:09 40.72398 -83.83165 16652 ft 390 kts 348°
2026-04-20 14:10 40.75085 -83.83878 15422 ft 404 kts 348°
2026-04-20 14:10 40.77864 -83.84616 14202 ft 416 kts 348°
2026-04-20 14:10 40.80690 -83.85368 13239 ft 421 kts 348°
2026-04-20 14:10 40.83560 -83.86131 12252 ft 427 kts 348°
2026-04-20 14:11 40.86440 -83.86898 11274 ft 432 kts 348°
2026-04-20 14:11 40.89383 -83.87682 10434 ft 433 kts 348°
2026-04-20 14:11 40.92311 -83.88464 9818 ft 429 kts 348°
2026-04-20 14:11 40.95212 -83.89238 9192 ft 426 kts 348°
2026-04-20 14:12 40.97794 -83.89928 8485 ft 337 kts 348°
2026-04-20 14:12 41.00047 -83.90530 7828 ft 335 kts 348°
2026-04-20 14:12 41.02311 -83.91136 7216 ft 336 kts 348°
2026-04-20 14:12 41.04583 -83.91744 6597 ft 336 kts 348°
2026-04-20 14:13 41.06883 -83.92361 5970 ft 336 kts 348°
2026-04-20 14:13 41.09155 -83.92970 5353 ft 337 kts 348°
2026-04-20 14:13 41.11454 -83.93587 4730 ft 338 kts 348°
2026-04-20 14:13 41.13744 -83.94202 4111 ft 339 kts 348°
2026-04-20 14:14 41.16043 -83.94820 3493 ft 340 kts 348°
2026-04-20 14:14 41.18359 -83.95443 3148 ft 330 kts 348°
2026-04-20 14:14 41.20533 -83.96027 3090 ft 312 kts 348°
2026-04-20 14:14 41.22581 -83.96579 3075 ft 292 kts 348°
2026-04-20 14:15 41.24514 -83.97100 3069 ft 270 kts 348°
2026-04-20 14:15 41.26249 -83.97568 3108 ft 250 kts 348°
2026-04-20 14:15 41.27950 -83.98026 3096 ft 253 kts 348°
2026-04-20 14:15 41.29704 -83.98500 2892 ft 259 kts 348°
2026-04-20 14:16 41.31407 -83.98959 2565 ft 234 kts 348°
2026-04-20 14:16 41.32840 -83.99348 2274 ft 193 kts 348°
2026-04-20 14:16 41.34167 -83.99722 2303 ft 197 kts 348°
2026-04-20 14:16 41.35515 -84.00107 2299 ft 201 kts 348°
2026-04-20 14:17 41.36882 -84.00496 2294 ft 202 kts 348°
2026-04-20 14:17 41.38267 -84.00891 2291 ft 202 kts 348°
2026-04-20 14:17 41.39634 -84.01280 2291 ft 202 kts 348°
2026-04-20 14:17 41.41020 -84.01675 2291 ft 202 kts 348°
2026-04-20 14:18 41.42386 -84.02065 2291 ft 202 kts 348°
2026-04-20 14:18 41.43779 -84.02350 2280 ft 202 kts
2026-04-20 14:18 41.45130 -84.01865 2315 ft 203 kts 18°
2026-04-20 14:18 41.46467 -84.01289 2293 ft 202 kts 18°
2026-04-20 14:19 41.47800 -84.00714 2291 ft 202 kts 18°
2026-04-20 14:19 41.49150 -84.00132 2291 ft 202 kts 18°
2026-04-20 14:19 41.50482 -83.99558 2291 ft 202 kts 18°
2026-04-20 14:19 41.51814 -83.98984 2291 ft 202 kts 18°
2026-04-20 14:20 41.53148 -83.98397 2287 ft 202 kts 26°
2026-04-20 14:20 41.54081 -83.97075 2335 ft 202 kts 72°
2026-04-20 14:20 41.54406 -83.95219 2316 ft 204 kts 73°
2026-04-20 14:20 41.54880 -83.93448 2296 ft 202 kts 69°
2026-04-20 14:21 41.55410 -83.91704 2061 ft 203 kts 67°
2026-04-20 14:21 41.55950 -83.89985 1803 ft 201 kts 67°
2026-04-20 14:21 41.56488 -83.88286 1527 ft 182 kts 67°
2026-04-20 14:21 41.56934 -83.86874 1297 ft 161 kts 67°
2026-04-20 14:22 41.57374 -83.85487 1103 ft 164 kts 67°
2026-04-20 14:22 41.57825 -83.84062 886 ft 165 kts 67°
2026-04-20 14:22 41.58272 -83.82660 681 ft 159 kts 68°
2026-04-20 14:22 41.58572 -83.81692 678 ft 53 kts 66°
2026-04-20 14:23 41.58640 -83.81490 681 ft 15 kts 66°
2026-04-20 14:23 41.58672 -83.81383 681 ft 13 kts 69°
2026-04-20 14:23 41.58740 -83.81272 680 ft 19 kts
2026-04-20 14:23 41.58868 -83.81360 681 ft 21 kts 303°
2026-04-20 14:24 41.58892 -83.81515 681 ft 13 kts 264°
2026-04-20 14:24 41.58888 -83.81539 681 ft 0 kts 247°